Regional Weather Roundup
Issued by NWS

Home | Current Version | Previous Version | Graphics & Text | Print | Product List | Glossary Off
Versions: 1 2 3 4 5 6 7 8 9 10 11 12 13 14 15 16 17 18 19 20 21 22 23 24 25 26 27 28 29 30 31 32 33 34 35 36 37 38 39 40 41 42 43 44 45 46 47 48 49 50

000
ASUS43 KMPX 300201
RWRMN
WEATHER ROUNDUP FOR MINNESOTA
NATIONAL WEATHER SERVICE TWIN CITIES/CHANHASSEN MN
900 PM CDT FRI APR 29 2016


NOTE: "FAIR" INDICATES FEW OR NO CLOUDS BELOW 12,000 FEET WITH NO
SIGNIFICANT WEATHER AND/OR OBSTRUCTIONS TO VISIBILITY. N/A MEANS
CURRENT SKY AND/OR WEATHER CONDITIONS ARE NOT AVAILABLE.

MNZ060>063-068>070-300300-
   Twin Cities Metro

CITY           SKY/WX    TMP DP  RH WIND       PRES   REMARKS
TWIN CITIES    CLEAR     53  38  56 S5        30.11R
ST PAUL        CLEAR     51  40  65 SE5       30.11S
CRYSTAL        CLEAR     52  35  52 CALM      30.10S
BLAINE         PTCLDY    55  36  47 CALM      30.10F
EDEN PRAIRIE   CLEAR     51  36  56 SE7       30.10R
SOUTH ST PAUL  CLEAR     54  38  56 CALM      30.11R
LAKE ELMO      FAIR      50  41  71 CALM      30.12R
$$
MNZ001>005-007-008-013>017-022>024-027-028-300300-
   Northwest Minnesota

CITY           SKY/WX    TMP DP  RH WIND       PRES   REMARKS
BEMIDJI        CLOUDY    54  33  44 NE9       30.16R
HALLOCK        CLEAR     54  28  37 E8        30.20R
ROSEAU         CLEAR     48  37  66 NE9       30.22S
WARROAD        CLEAR     48  32  53 NE5       30.23S
THIEF RVR FALL CLEAR     54  30  40 NE13      30.20R
CROOKSTON      CLEAR     55  34  44 NE12G18   30.16F
FOSSTON        CLEAR     52  30  43 NE8       30.17R
DETROIT LAKES  CLEAR     54  32  43 E6        30.13S
MOORHEAD       CLEAR     55  36  47 E5        30.10S
PARK RAPIDS    CLEAR     55  30  38 NE6       30.13S
MAHNOMEN       FAIR      54  33  45 NE12      30.13S
$$
MNZ006-009>011-018-025>026-300300-
   North Central Minnesota

CITY           SKY/WX    TMP DP  RH WIND       PRES   REMARKS
BAUDETTE       CLEAR     47  31  53 N7        30.21R
FLAG ISLAND    CLEAR     52  30  43 NE6       30.22S
INTL FALLS     CLEAR     49  30  48 E6        30.23R
WASKISH        CLEAR     52  34  50 E6        30.20S
BIG FORK       CLEAR     50  30  46 NE5       30.21R
LONGVILLE      CLEAR     50  30  46 NE3       30.15R
GRAND RAPIDS   CLOUDY    52  28  40 E5        30.19S
CRANE LAKE     CLEAR     41  32  70 CALM      30.25R
ORR            CLEAR     45  28  53 CALM      30.21R
COOK           CLEAR     45  30  57 CALM      30.23R
WALKER         FAIR      52  31  44 NE3       30.15R
$$
MNZ012-019>021-037-300300-
   Northeast Minnesota

CITY           SKY/WX    TMP DP  RH WIND       PRES   REMARKS
DULUTH         PTCLDY    41  28  60 NE9       30.20S
ELY            CLOUDY    46  30  53 E7        30.23R
HIBBING        CLEAR     44  30  57 E7        30.21R
EVELETH        CLEAR     45  30  57 NE5       30.23R
DULUTH HARBOR  CLEAR     39  34  81 NE17      30.22S
TWO HARBORS    CLEAR     43  32  65 NE5       30.21S
SILVER BAY     CLEAR     37  30  75 CALM      30.22R
GRAND MARAIS     N/A     43  33  68 CALM      30.24R
G MARAIS ARPRT CLOUDY    39  28  65 CALM      30.23R
$$
MNZ029>031-032-039>041-046>048-054>057-064-300300-
   West Central Minnesota

CITY           SKY/WX    TMP DP  RH WIND       PRES   REMARKS
FERGUS FALLS   CLEAR     57  34  41 CALM      30.08S
WHEATON        CLEAR     54  41  62 CALM      30.12S
MORRIS         CLEAR     52  37  58 E3        30.09S
ALEXANDRIA     CLEAR     50  32  50 E6        30.12R
ELBOW LAKE     FAIR      51  38  61 S5        30.11S
WADENA         CLEAR     52  32  46 SE3       30.12R
GLENWOOD       CLEAR     48  36  61 NE7       30.11S
APPLETON       CLEAR     50  39  66 CALM      30.09F
BENSON         CLEAR     46  36  66 CALM      30.11R
ORTONVILLE     CLOUDY    50  43  76 CALM      30.09F
MADISON        CLOUDY    48  41  76 NE6       30.09S
WILLMAR        FAIR      52  39  62 E5        30.12R
$$
MNZ033>034-036-042>043-049>051-058-059-300300-
   Central Minnesota

CITY           SKY/WX    TMP DP  RH WIND       PRES   REMARKS
ST CLOUD       CLEAR     51  35  54 NE5       30.11S
SAUK CENTRE    FAIR      50  35  55 CALM      30.11S
PAYNESVILLE    CLEAR     51  35  54 CALM      30.11S
AITKIN         PTCLDY    52  28  40 E6        30.15R
PINE RIVER     PTCLDY    54  34  47 CALM      30.17S
BRAINERD       CLEAR     51  29  42 CALM      30.14R
STAPLES        CLEAR     54  28  37 CALM      30.13S
LONG PRAIRIE   FAIR      50  32  50 N3        30.12F
LITTLE FALLS   CLEAR     50  32  50 CALM      30.13S
LITCHFIELD     CLEAR     50  39  66 CALM      30.11S
BUFFALO        CLEAR     51  37  60 CALM      30.12R
MAPLE LAKE     CLEAR     52  39  61 CALM      30.11S
HUTCHINSON     CLEAR     52  39  61 NE3       30.12S
$$
MNZ037-044-045-052-053-300300-
   East Central Minnesota

CITY           SKY/WX    TMP DP  RH WIND       PRES   REMARKS
PRINCETON      CLEAR     54  34  47 NE8       30.12S
MORA           CLEAR     50  32  50 NE5       30.15S
CAMBRIDGE      CLEAR     55  37  50 N5        30.10S
RUSH CITY      PTCLDY    51  32  47 NE7       30.13R
MOOSE LAKE     CLEAR     46  30  53 NE10      30.16S
HINCKLEY       FAIR      50  32  50 N7        30.15S
CLOQUET        CLEAR     43  27  52 NE6       30.20S
MCGREGOR       CLEAR     48  32  53 E10       30.18R
$$
MNZ071>073-080-081-089-090-097-098-300300-
   Southwest Minnesota

CITY           SKY/WX    TMP DP  RH WIND       PRES   REMARKS
MONTEVIDEO     CLOUDY    48  41  76 SE5       30.11S
GRANITE FALLS  CLOUDY    49  42  77 NE5       30.10F
CANBY          CLOUDY    51  46  83 NE5       30.09S
MARSHALL       CLOUDY    48  40  73 E7        30.09S
REDWOOD FALLS  CLOUDY    50  38  63 CALM      30.09S
OLIVIA         CLOUDY    50  37  62 E5        30.09S
PIPESTONE      CLOUDY    48  41  76 E7        30.05R
WINDOM         CLOUDY    45  41  87 CALM      30.07S
WORTHINGTON    MOCLDY    46  41  82 E10       30.06S
JACKSON        PTCLDY    46  41  81 E9        30.07S
TRACY          CLOUDY    48  42  80 NE6       30.08S
SLAYTON        CLOUDY    48  42  80 NE8       30.06F
$$
MNZ065>067-074>077-082>085-091>093-300300-
   South Central Minnesota

CITY           SKY/WX    TMP DP  RH WIND       PRES   REMARKS
MANKATO        PTCLDY    48  39  71 E6        30.09F
NEW ULM        CLOUDY    52  39  62 E3        30.09S
ST JAMES       PTCLDY    45  39  81 E9        30.10R
FAIRMONT       MOCLDY    46  36  66 E8        30.08S
GLENCOE        PTCLDY    50  40  68 CALM      30.09F
FARIBAULT      MOCLDY    50  39  66 E2        30.11S
OWATONNA       PTCLDY    46  39  76 E3        30.10F
WASECA         CLOUDY    45  37  76 E6        30.11S
ALBERT LEA     CLOUDY    48  41  76 E9        30.09S
$$
MNZ078>079-086>088-094>096-300300-
   Southeast Minnesota

CITY           SKY/WX    TMP DP  RH WIND       PRES   REMARKS
ROCHESTER      CLOUDY    47  40  76 E9        30.11F
RED WING       PTCLDY    48  39  71 SE5       30.11R
STANTON        CLOUDY    49  41  71 CALM      30.10S
DODGE CENTER   CLOUDY    46  37  71 E6        30.10F
WINONA         CLOUDY    52  41  66 CALM      30.12F
AUSTIN         CLOUDY    46  39  76 E7        30.09S
PRESTON        CLOUDY    46  38  74 E6        30.11S
$$
ABBREVIATIONS USED IN REMARKS
   TC - TEMPERATURES IN CELSIUS
  WCI - WIND CHILL INDEX
   HX - HEAT INDEX
  VSB - VISIBILITY
$$




USA.gov is the U.S. government's official web portal to all federal, state and local government web resources and services.